Tracking 22438 objects as of 25-Feb-2021
HD Live streaming from Space Station
objects crossing your sky now

STARLINK-1893

Track STARLINK-1893 now!
10-day predictions
STARLINK-1893 is classified as:


NORAD ID: 46786
Int'l Code: 2020-074AZ
Perigee: 455.9 km
Apogee: 457.8 km
Inclination: 53.1 °
Period: 93.6 minutes
Semi major axis: 6827 km
RCS: Unknown
Launch date: October 24, 2020
Source: United States (US)
Launch site: AIR FORCE EASTERN TEST RANGE (AFETR)
aabbcc
Your satellite tracking list
Your tracking list is empty




NASA's NSSDC Master Catalog

Two Line Element Set (TLE):
1 46786U 20074AZ  21055.91668981 -.00000721  00000-0 -83625-5 0  9996
2 46786  53.0527 281.5783 0001434  57.7031  15.0433 15.38777516  1876
Source of the keplerian elements: AFSPC